�N����,����,�~����,�C��,���x,�C��,����,���ϕ���,�ő�u�ԕ���,�ő厞����,���˗�,�I�_���x,�n�����x,�ő啗���N��,DTYPE
"22/10/17","00:10",0.0,18.9,91.7,1010.2,316.6,1.2,1.8,326.3,0.00,17.6,20.7,"00:00:02",1
"22/10/17","00:20",0.0,19.0,91.9,1010.4,293.7,1.0,1.8,315.8,0.00,17.7,20.9,"00:11:44",1
"22/10/17","00:30",0.0,19.1,92.0,1010.4,316.0,1.5,1.8,319.3,0.00,17.8,20.9,"00:23:20",1
"22/10/17","00:40",0.0,19.2,92.0,1010.4,322.9,1.3,1.8,328.8,0.00,17.9,20.7,"00:30:40",1
"22/10/17","00:50",0.0,19.2,92.0,1010.2,306.0,1.1,1.6,332.5,0.00,17.9,20.7,"00:40:48",1
"22/10/17","01:00",0.0,19.3,92.1,1010.2,299.0,1.0,1.7,326.9,0.00,18.0,20.7,"00:57:52",1
"22/10/17","01:10",0.0,19.3,92.0,1010.7,314.0,1.0,1.6,327.6,0.00,18.0,20.8,"01:02:24",1
"22/10/17","01:20",0.0,19.3,91.9,1010.2,317.1,1.1,1.4,318.5,0.00,18.0,20.7,"01:11:20",1
"22/10/17","01:30",0.0,19.2,91.8,1010.4,313.7,1.1,1.4,320.3,0.00,17.9,20.6,"01:27:04",1
"22/10/17","01:40",0.0,19.0,91.9,1010.0,310.2,1.0,1.3,315.5,0.00,17.7,20.7,"01:39:04",1
"22/10/17","01:50",0.0,18.9,92.1,1009.7,315.6,1.0,1.2,328.0,0.00,17.6,20.7,"01:40:08",1
"22/10/17","02:00",0.0,19.0,92.0,1010.0,318.6,0.7,1.3,318.6,0.00,17.7,20.7,"01:58:48",1
"22/10/17","02:10",0.0,18.9,92.1,1010.0,312.8,1.1,1.3,318.6,0.00,17.6,20.7,"02:00:16",1
"22/10/17","02:20",0.0,18.7,92.2,1010.0,316.5,1.0,1.2,327.6,0.00,17.4,20.7,"02:13:04",1
"22/10/17","02:30",0.0,18.8,92.3,1009.5,312.3,1.0,1.3,322.2,0.00,17.6,20.6,"02:23:52",1
"22/10/17","02:40",0.0,18.8,92.5,1009.3,294.6,1.0,1.3,285.6,0.00,17.6,20.4,"02:38:48",1
"22/10/17","02:50",0.0,19.0,92.5,1009.3,307.3,0.8,1.4,330.9,0.00,17.8,20.6,"02:40:32",1
"22/10/17","03:00",0.0,19.1,92.5,1009.5,321.8,1.1,1.4,320.3,0.00,17.9,20.6,"02:55:04",1
"22/10/17","03:10",0.0,19.1,92.5,1009.5,313.5,1.1,1.7,317.0,0.00,17.9,20.7,"03:00:32",1
"22/10/17","03:20",0.0,19.1,92.6,1009.5,303.2,0.8,1.2,320.5,0.00,17.9,20.7,"03:10:08",1
"22/10/17","03:30",0.0,19.1,92.7,1009.5,330.2,0.5,1.3,322.9,0.00,17.9,20.5,"03:28:24",1
"22/10/17","03:40",0.0,19.2,92.8,1009.3,313.5,1.1,1.7,328.6,0.00,18.0,20.7,"03:38:16",1
"22/10/17","03:50",0.0,19.2,92.9,1009.3,299.3,1.1,1.7,332.2,0.00,18.1,20.5,"03:40:08",1
"22/10/17","04:00",0.0,19.2,93.0,1009.3,294.7,1.1,1.6,304.3,0.00,18.1,20.5,"03:54:40",1
"22/10/17","04:10",0.2,19.2,93.1,1009.3,288.8,1.1,1.9,313.6,0.00,18.1,20.7,"04:09:28",1
"22/10/17","04:20",0.2,19.2,93.1,1009.0,299.5,1.0,1.7,318.0,0.00,18.1,20.6,"04:18:16",1
"22/10/17","04:30",0.2,19.2,93.2,1009.0,317.3,1.3,1.9,320.4,0.00,18.1,20.4,"04:25:38",1
"22/10/17","04:40",0.4,19.1,93.3,1009.3,301.2,1.1,1.8,312.6,0.00,18.0,20.4,"04:31:36",1
"22/10/17","04:50",0.4,19.1,93.4,1009.3,294.8,1.0,1.4,308.4,0.00,18.0,20.2,"04:42:24",1
"22/10/17","05:00",0.0,19.1,93.6,1008.8,325.5,1.0,1.8,340.2,0.00,18.1,20.5,"04:55:20",1
"22/10/17","05:10",0.0,19.1,93.7,1009.3,284.8,1.2,1.9,326.5,0.00,18.1,20.5,"05:01:28",1
"22/10/17","05:20",0.2,19.2,93.9,1009.0,270.3,1.5,2.6,329.5,0.00,18.2,20.5,"05:19:52",1
"22/10/17","05:30",0.0,19.2,94.0,1008.8,283.0,1.2,2.4,318.0,0.00,18.3,20.5,"05:20:56",1
"22/10/17","05:40",0.0,19.2,94.1,1009.0,320.7,1.5,2.1,337.3,0.00,18.3,20.4,"05:35:04",1
"22/10/17","05:50",0.2,19.2,94.2,1008.8,300.1,1.0,1.6,321.0,0.00,18.3,20.5,"05:45:52",1
"22/10/17","06:00",0.2,19.1,94.3,1009.0,291.4,1.1,1.2,310.6,0.00,18.2,20.4,"05:57:04",1
"22/10/17","06:10",0.2,19.2,94.4,1009.0,317.2,1.5,1.7,315.8,0.00,18.3,20.5,"06:01:44",1
"22/10/17","06:20",0.2,19.1,94.5,1008.8,296.8,0.7,1.6,316.7,0.00,18.2,20.4,"06:10:48",1
"22/10/17","06:30",0.0,19.2,94.6,1009.0,284.0,1.0,1.3,315.9,0.00,18.4,20.4,"06:26:56",1
"22/10/17","06:40",0.0,19.1,94.6,1008.8,305.4,0.8,1.1,312.3,0.00,18.3,20.4,"06:32:32",1
"22/10/17","06:50",0.0,19.1,94.7,1009.0,311.5,1.1,1.4,322.8,0.00,18.3,20.5,"06:47:12",1
"22/10/17","07:00",0.0,19.2,94.9,1009.0,317.2,0.8,1.3,321.3,0.00,18.4,20.4,"06:56:32",1
"22/10/17","07:10",0.0,19.3,94.9,1008.8,333.2,1.2,1.7,344.5,0.00,18.5,20.5,"07:04:32",1
"22/10/17","07:20",0.2,19.4,95.0,1009.0,316.6,1.2,1.7,317.8,0.00,18.6,20.6,"07:11:52",1
"22/10/17","07:30",0.2,19.3,95.1,1008.8,302.4,0.6,1.6,344.8,0.00,18.5,20.4,"07:20:48",1
"22/10/17","07:40",0.0,19.3,95.2,1009.0,279.7,0.6,0.9,283.7,0.00,18.6,20.5,"07:37:36",1
"22/10/17","07:50",0.0,19.4,95.2,1008.6,289.0,0.5,0.9,307.8,0.00,18.7,20.4,"07:41:20",1
"22/10/17","08:00",0.0,19.4,95.3,1009.0,279.9,0.7,1.0,242.7,0.00,18.7,20.3,"07:51:12",1
"22/10/17","08:10",0.0,19.4,95.3,1008.8,275.6,0.3,1.0,256.5,0.00,18.7,20.2,"08:00:48",1
"22/10/17","08:20",0.0,19.5,95.4,1008.8,312.6,0.2,0.5,259.4,0.01,18.8,20.4,"08:18:48",1
"22/10/17","08:30",0.0,19.6,95.4,1008.8,326.4,1.1,1.6,330.5,0.00,18.9,20.2,"08:23:12",1
"22/10/17","08:40",0.0,19.6,95.5,1009.0,325.9,1.1,1.8,334.1,0.00,18.9,20.4,"08:36:16",1
"22/10/17","08:50",0.0,19.6,95.5,1009.0,316.3,1.0,1.7,331.2,0.00,18.9,20.4,"08:40:08",1
"22/10/17","09:00",0.2,19.6,95.7,1009.0,274.1,0.6,0.9,263.5,0.01,18.9,20.3,"08:51:12",1
"22/10/17","09:10",0.4,19.7,95.7,1009.0,312.0,1.1,1.7,322.8,0.01,19.0,20.4,"09:05:04",1
"22/10/17","09:20",0.4,19.6,95.8,1008.8,308.0,1.0,1.6,302.1,0.01,19.0,20.3,"09:11:44",1
"22/10/17","09:30",0.2,19.7,95.9,1008.8,294.6,0.7,1.2,323.8,0.01,19.1,20.6,"09:20:48",1
"22/10/17","09:40",0.0,19.7,95.9,1008.8,259.2,0.7,1.0,239.7,0.01,19.1,20.2,"09:38:08",1
"22/10/17","09:50",0.0,19.7,95.9,1008.6,285.4,0.8,1.3,319.4,0.01,19.1,20.3,"09:48:48",1
"22/10/17","10:00",0.0,19.8,95.9,1008.6,291.8,0.7,1.0,313.7,0.00,19.2,20.5,"09:51:04",1
"22/10/17","10:10",0.2,19.7,96.0,1008.6,290.4,0.7,1.2,253.5,0.00,19.1,20.3,"10:00:32",1
"22/10/17","10:20",0.0,19.8,96.1,1008.6,330.8,0.3,0.6,309.8,0.01,19.2,20.5,"10:10:24",1
"22/10/17","10:30",0.0,20.0,96.0,1008.3,222.5,0.2,0.6,2.8,0.02,19.4,20.5,"10:20:24",1
"22/10/17","10:40",0.0,20.0,96.1,1007.8,300.1,0.2,0.8,75.4,0.01,19.4,20.3,"10:32:48",1
"22/10/17","10:50",0.0,20.0,96.1,1007.8,334.8,0.5,1.3,317.1,0.01,19.4,20.2,"10:43:36",1
"22/10/17","11:00",0.0,20.0,96.2,1007.6,31.9,0.2,0.8,85.7,0.02,19.4,20.4,"10:55:52",1
"22/10/17","11:10",0.2,20.1,96.1,1007.8,303.3,0.3,1.1,309.9,0.01,19.5,20.5,"11:06:32",1
"22/10/17","11:20",0.0,20.1,96.2,1007.6,266.8,0.3,1.3,246.1,0.01,19.5,20.5,"11:12:08",1
"22/10/17","11:30",0.0,20.3,96.3,1007.6,100.8,0.3,1.2,110.6,0.06,19.7,20.4,"11:28:48",1
"22/10/17","11:40",0.2,20.5,96.4,1007.1,39.2,0.5,1.3,61.8,0.09,19.9,20.6,"11:34:24",1
"22/10/17","11:50",0.0,20.9,96.3,1007.1,287.4,0.3,1.0,322.3,0.09,20.3,20.6,"11:43:52",1
"22/10/17","12:00",0.0,20.8,96.2,1006.7,288.9,0.2,0.8,331.5,0.06,20.2,20.4,"11:53:36",1
"22/10/17","12:10",0.0,20.7,96.2,1006.9,262.2,0.2,0.9,254.7,0.03,20.1,20.3,"12:07:52",1
"22/10/17","12:20",0.0,20.7,96.2,1006.7,140.9,0.1,0.5,144.4,0.03,20.1,20.6,"12:12:24",1
"22/10/17","12:30",0.0,20.7,96.3,1006.4,326.4,0.3,1.1,357.8,0.04,20.1,20.5,"12:23:28",1
"22/10/17","12:40",0.0,20.9,96.3,1006.2,44.3,0.2,1.0,100.7,0.06,20.3,20.5,"12:35:44",1
"22/10/17","12:50",0.0,20.9,96.2,1006.0,203.2,0.3,1.1,132.3,0.05,20.3,20.5,"12:42:40",1
"22/10/17","13:00",0.0,20.4,96.3,1006.2,283.4,1.0,1.9,252.0,0.01,19.8,20.6,"12:58:00",1
"22/10/17","13:10",0.0,20.3,96.3,1006.2,315.7,1.1,2.9,341.5,0.01,19.7,20.6,"13:04:00",1
"22/10/17","13:20",0.2,20.2,96.4,1006.2,322.8,1.1,1.7,334.0,0.03,19.6,20.6,"13:14:56",1
"22/10/17","13:30",0.2,20.3,96.4,1006.0,306.2,0.8,1.7,338.2,0.04,19.7,20.6,"13:22:48",1
"22/10/17","13:40",0.0,20.4,96.4,1006.0,336.1,0.5,1.2,329.9,0.04,19.8,20.6,"13:30:56",1
"22/10/17","13:50",0.4,20.5,96.3,1005.7,358.1,0.5,1.1,4.4,0.04,19.9,20.5,"13:48:24",1
"22/10/17","14:00",0.2,20.2,96.2,1005.7,338.4,0.7,1.4,345.0,0.00,19.6,20.6,"13:57:52",1
"22/10/17","14:10",0.2,20.2,96.3,1005.5,315.5,0.3,0.8,15.8,0.01,19.6,20.4,"14:00:08",1
"22/10/17","14:20",0.0,20.2,96.3,1005.5,335.1,0.7,1.4,347.1,0.02,19.6,20.5,"14:14:48",1
"22/10/17","14:30",0.0,20.3,96.3,1005.5,313.6,0.7,1.4,335.2,0.01,19.7,20.7,"14:22:24",1
"22/10/17","14:40",0.0,20.3,96.3,1005.2,317.2,0.8,2.5,350.6,0.02,19.7,20.7,"14:39:52",1
"22/10/17","14:50",0.0,19.6,96.3,1005.5,330.2,1.6,3.1,347.9,0.01,19.0,20.7,"14:44:24",1
"22/10/17","15:00",0.0,19.6,96.3,1005.5,325.5,1.3,2.5,334.7,0.00,19.0,20.6,"14:56:56",1
"22/10/17","15:10",0.2,19.7,96.1,1005.7,331.8,1.1,2.0,330.6,0.04,19.1,20.8,"15:09:44",1
"22/10/17","15:20",0.0,19.7,96.2,1005.7,288.0,0.7,2.1,257.7,0.02,19.1,20.5,"15:16:32",1
"22/10/17","15:30",0.0,19.5,96.2,1005.7,314.0,1.0,2.1,333.6,0.01,18.9,20.7,"15:28:00",1
"22/10/17","15:40",0.0,19.6,96.2,1006.0,302.0,0.8,1.7,342.9,0.02,19.0,20.7,"15:36:56",1
"22/10/17","15:50",0.2,19.5,96.1,1005.7,313.3,1.1,2.6,327.5,0.03,18.9,20.8,"15:49:20",1
"22/10/17","16:00",0.0,19.4,96.0,1005.5,327.5,1.1,2.5,350.4,0.02,18.8,20.8,"15:50:16",1
"22/10/17","16:10",0.0,19.3,96.0,1006.0,301.0,1.0,1.6,315.6,0.01,18.7,20.8,"16:07:52",1
"22/10/17","16:20",0.0,19.3,96.0,1006.2,301.2,0.6,1.8,336.0,0.00,18.7,20.7,"16:10:24",1
"22/10/17","16:30",0.0,19.3,96.0,1006.0,280.7,1.0,1.6,237.9,0.00,18.7,20.7,"16:29:12",1
"22/10/17","16:40",0.0,19.3,96.0,1006.0,247.7,0.5,1.0,261.8,0.00,18.7,20.7,"16:37:44",1
"22/10/17","16:50",0.0,19.2,96.0,1006.2,280.7,1.0,1.9,240.4,0.00,18.6,20.7,"16:45:44",1
"22/10/17","17:00",0.0,19.2,96.0,1006.0,276.7,1.0,2.0,258.2,0.00,18.6,20.7,"16:52:24",1
"22/10/17","17:10",0.0,19.1,96.0,1006.2,324.9,1.2,2.2,339.1,0.00,18.5,20.7,"17:03:36",1
"22/10/17","17:20",0.0,19.0,96.0,1006.4,303.8,1.0,1.8,352.3,0.00,18.4,20.7,"17:14:56",1
"22/10/17","17:30",0.2,18.9,96.0,1006.4,333.8,0.5,1.1,5.0,0.00,18.3,20.7,"17:24:16",1
"22/10/17","17:40",0.0,18.7,96.0,1006.4,309.9,0.8,1.2,326.6,0.00,18.1,20.7,"17:34:08",1
"22/10/17","17:50",0.0,18.7,96.0,1006.7,323.3,1.0,1.4,343.8,0.00,18.1,20.7,"17:42:08",1
"22/10/17","18:00",0.0,18.5,96.0,1006.9,314.0,1.0,1.3,335.3,0.00,17.9,20.5,"17:51:04",1
"22/10/17","18:10",0.0,18.5,96.1,1006.4,321.0,1.2,1.8,343.0,0.00,17.9,20.6,"18:03:36",1
"22/10/17","18:20",0.0,18.4,96.1,1006.9,324.9,1.0,1.7,307.4,0.00,17.8,20.8,"18:10:02",1
"22/10/17","18:30",0.0,18.3,96.2,1006.9,307.2,1.0,1.7,310.3,0.00,17.7,20.7,"18:20:08",1
"22/10/17","18:40",0.0,18.2,96.2,1006.4,311.9,1.1,1.8,340.2,0.00,17.6,20.6,"18:36:08",1
"22/10/17","18:50",0.0,18.0,96.3,1006.7,304.1,1.0,1.8,313.3,0.00,17.4,20.5,"18:49:36",1
"22/10/17","19:00",0.0,18.0,96.4,1006.9,311.2,1.3,2.4,337.5,0.00,17.5,20.4,"18:58:56",1
"22/10/17","19:10",0.2,18.0,96.4,1007.1,323.4,1.2,2.2,320.4,0.00,17.5,20.5,"19:01:04",1
"22/10/17","19:20",0.0,17.9,96.5,1006.9,319.8,1.1,1.6,327.3,0.00,17.4,20.5,"19:12:56",1
"22/10/17","19:30",0.0,17.8,96.5,1007.1,295.4,0.7,1.2,316.6,0.00,17.3,20.7,"19:27:52",1
"22/10/17","19:40",0.0,17.7,96.5,1007.6,287.0,1.1,1.7,319.2,0.00,17.2,20.5,"19:35:28",1
"22/10/17","19:50",0.0,17.7,96.6,1006.9,286.0,0.7,1.4,313.8,0.00,17.2,20.6,"19:48:08",1
"22/10/17","20:00",0.0,17.6,96.6,1006.9,318.5,0.8,1.6,326.7,0.00,17.1,20.6,"19:56:00",1
"22/10/17","20:10",0.0,17.5,96.7,1006.9,297.6,1.2,1.7,330.0,0.00,17.0,20.5,"20:08:00",1
"22/10/17","20:20",0.0,17.5,96.7,1006.7,285.8,1.1,1.7,307.6,0.00,17.0,20.6,"20:10:56",1
"22/10/17","20:30",0.0,17.4,96.7,1006.7,305.1,1.1,1.7,321.5,0.00,16.9,20.4,"20:26:16",1
"22/10/17","20:40",0.0,17.3,96.8,1006.7,286.4,0.7,1.0,254.0,0.00,16.8,20.3,"20:35:36",1
"22/10/17","20:50",0.0,17.2,96.9,1006.7,327.9,1.1,1.9,328.6,0.00,16.7,20.4,"20:48:08",1
"22/10/17","21:00",0.0,17.2,96.9,1006.9,317.2,1.5,2.0,330.4,0.00,16.7,20.3,"20:55:36",1
"22/10/17","21:10",0.0,17.1,97.0,1006.4,296.1,1.0,1.3,307.8,0.00,16.7,20.3,"21:00:48",1
"22/10/17","21:20",0.0,17.1,97.0,1006.7,283.5,0.6,1.3,261.9,0.00,16.7,20.3,"21:10:48",1
"22/10/17","21:30",0.0,17.1,97.0,1006.4,301.4,1.0,1.6,317.9,0.00,16.7,20.4,"21:26:56",1
"22/10/17","21:40",0.0,17.1,97.0,1006.4,292.4,1.0,1.6,313.8,0.00,16.7,20.2,"21:37:28",1
"22/10/17","21:50",0.0,17.0,97.0,1006.7,292.7,1.0,1.3,313.2,0.00,16.6,20.4,"21:45:28",1
"22/10/17","22:00",0.0,17.0,97.1,1006.4,291.6,1.1,1.4,310.6,0.00,16.6,20.5,"21:56:08",1
"22/10/17","22:10",0.0,17.0,97.1,1006.7,300.0,1.2,1.7,318.0,0.00,16.6,20.0,"22:09:36",1
"22/10/17","22:20",0.0,17.0,97.1,1006.7,298.6,1.2,1.8,319.2,0.00,16.6,20.3,"22:10:08",1
"22/10/17","22:30",0.0,17.0,97.2,1006.4,308.0,1.7,2.4,313.6,0.00,16.6,20.2,"22:28:56",1
"22/10/17","22:40",0.0,17.0,97.2,1006.7,296.3,1.3,1.8,324.0,0.00,16.6,20.4,"22:30:32",1
"22/10/17","22:50",0.0,16.9,97.3,1006.7,302.0,1.7,2.5,320.3,0.00,16.5,20.3,"22:45:44",1
"22/10/17","23:00",0.0,16.9,97.3,1006.2,292.3,1.0,1.3,261.3,0.00,16.5,20.3,"22:52:32",1
"22/10/17","23:10",0.0,16.8,97.3,1006.7,299.4,1.2,1.7,325.8,0.00,16.4,20.3,"23:05:36",1
"22/10/17","23:20",0.0,16.8,97.4,1006.2,321.5,1.7,2.9,314.8,0.00,16.4,20.2,"23:10:24",1
"22/10/17","23:30",0.0,16.8,97.4,1006.4,285.6,1.5,1.9,323.3,0.00,16.4,20.3,"23:20:56",1
"22/10/17","23:40",0.0,16.8,97.4,1006.4,304.3,1.5,1.9,309.0,0.00,16.4,20.2,"23:35:36",1
"22/10/17","23:50",0.0,16.8,97.4,1006.2,319.3,1.5,2.5,325.8,0.00,16.4,20.2,"23:42:08",1
"22/10/17","24:00",0.0,16.7,97.5,1006.4,294.5,1.0,1.6,357.1,0.00,16.3,20.2,"23:58:48",1
